Regional Weather Roundup
Issued by NWS

Home | Current Version | Previous Version | Graphics & Text | Print | Product List | Glossary On
Versions: 1 2 3 4 5 6 7 8 9 10 11 12 13 14 15 16 17 18 19 20 21 22 23 24 25 26 27 28 29 30 31 32 33 34 35 36 37 38 39 40 41 42 43 44 45 46 47 48 49 50
000
ASUS43 KFSD 030310
RWRSD

WEATHER ROUNDUP FOR SOUTH DAKOTA
NATIONAL WEATHER SERVICE SIOUX FALLS SD
1000 PM CDT MON MAY 02 2016

NOTE: "FAIR" INDICATES FEW OR NO CLOUDS BELOW 12,000 FEET WITH NO
SIGNIFICANT WEATHER AND/OR OBSTRUCTIONS TO VISIBILITY.


SDZ001>005-009-010-012>017-030400-
NORTHWEST AND NORTH CENTRAL SOUTH DAKOTA

CITY           SKY/WX    TMP DP  RH WIND       PRES   REMARKS
BUFFALO          N/A     51  34  52 NE12      29.98R
FAITH            N/A     46  40  79 S9        30.02R
MOBRIDGE       CLEAR     50  44  80 E3        29.99R
$$

SDZ012>016-024>037-041>051-057-063-072>074-030400-
SOUTHWEST AND SOUTH CENTRAL SOUTH DAKOTA

CITY           SKY/WX    TMP DP  RH WIND       PRES   REMARKS
RAPID CTY ARPT CLEAR     47  37  68 N9        30.02R
PIERRE         PTCLDY    48  42  80 CALM      30.01R
CUSTER         CLOUDY    50  31  48 NW6G22    30.07R
ELLSWORTH AFB  CLEAR     53  38  56 N7        30.02R
PHILIP         CLEAR     44  41  89 CALM      30.02R
PINE RIDGE     CLOUDY    47  42  83 CALM      30.03S
WINNER         CLOUDY    53  45  74 W6        30.03R
$$

SDZ004>011-016>023-039-040-030400-
NORTHEAST SOUTH DAKOTA

CITY           SKY/WX    TMP DP  RH WIND       PRES   REMARKS
ABERDEEN       CLEAR     47  37  68 CALM      30.01R
WATERTOWN      PTCLDY    52  40  63 NW6       30.01R
BROOKINGS      CLEAR     51  36  56 SW5       30.01R
SISSETON         N/A     54  36  50 NW5       29.98S
$$

SDZ017-020-022-023-036>040-048>070-030400-
SOUTHEAST SOUTH DAKOTA

CITY           SKY/WX    TMP DP  RH WIND       PRES   REMARKS
SIOUX FALLS    CLEAR     49  39  68 CALM      30.02R
HURON          MOCLDY    51  43  74 NE5       30.01R
CHAMBERLAIN    PTCLDY    51  49  92 CALM      30.02R
MITCHELL       PTCLDY    49  46  90 SE5       30.02R
YANKTON        PTCLDY    55  37  50 SE3       30.02R
$$

ABBREVIATIONS USED IN REMARKS
   TC - TEMPERATURE IN CELSIUS
  WCI - WIND CHILL INDEX
   HX - HEAT INDEX
  VSB - VISIBILITY




USA.gov is the U.S. government's official web portal to all federal, state and local government web resources and services.